PEGASUS R/B

Satellite information

Favourite Embed

Satellite Type and Status

ROCKET BODYIN ORBIT

Key statistics

Satellite PEGASUS R/B at a glance.

Uptime

11945

Days in orbit

Revolutions

≈ 14.6

Per day

Orbit

LEO

Low Earth Orbit

Inclination

25.0

Latest

Satellite identification and parameters

Extended collection of information and parameters for PEGASUS R/B.

Object identification

Identified? True

Debris? False

Object name: PEGASUS R/B

International designator: 1993-009C

Object number (NORAD): 22491

Object ID (CCSDS): 22491

Country: UNITED STATES OF AMERICA (US)

Current information (Y/N): Y

RCS size: MEDIUM

Orbital parameters

Period: 98.802 minutes

Inclination: 24.9763 deg

SMA: 7079.517 km

Apoapsis: 732.935 km

Periapsis: 669.829 km

RAAN: 136.6153 deg

Eccentricy: 0.00445697

Argument of periapsis: 78.9693 deg

Mean anomaly: 281.5827 deg

Mean motion: 14.57462248 rev/day

Mean motion (dot): 0.00001877 rev/day2

B* drag term: 0.00035700036 1/REarth

Two-line elements (TLE)

Creation date: Oct. 24, 2025, 2:48 a.m.

Reference frame: TEME

Reference center: EARTH

Epoch: Oct. 23, 2025, 8:59 p.m. UTC

TLE line 0: 0 PEGASUS R/B

TLE line 1: 1 22491U 93009C 25296.87457978 .00001877 00000-0 35700-3 0 9999

TLE line 2: 2 22491 24.9763 136.6153 0044570 78.9693 281.5827 14.57462248735111

Live tracking on map

Real-time ground track for satellite PEGASUS R/B.

In-orbit conjunctions

A list of the most updated potential collisions computed for object PEGASUS R/B.

Target Orbit TCA Probability of collision Miss distance Type
CZ-6A DEB SSO 2025-08-14 15:58:35 0.0004946642 934.0 (m) DEBRIS
CZ-2C DEB SSO 2024-07-08 05:12:22 0.000307154 538.0 (m) DEBRIS

Associated space launch

PEGASUS R/B was lifted into orbit during the mission ‘Pegasus | Satélite de Coleta de Dados-1 (SCD-1)’, on board a Pegasus space rocket.

The launch took place on Feb. 9, 1993, 2:30 p.m. from Cape Canaveral.

For more information about the launch, click the button.

Launch to space Pegasus | Satélite de Coleta de Dados-1 (SCD-1)
Pegasus | Satélite de Coleta de Dados-1 (SCD-1)

Agency: N/A

Status: Launch Successful

Launch date: Feb. 9, 1993, 2:30 p.m. UTC

Rocket: Pegasus

Launch pad: Cape Canaveral

Location: Air launch to orbit

...

Latest news about this satellite

There are no fresh news available about this satellite. Check back as we update our databases every day.


Newsletter sign-up

Weekly statistics, charts and insights to help you stay on top of the space industry.